Location: Breitenfeld
(46.8500°N, 15.6333°E)
Time: 23:24:46
(UTC+00:00)

Transit 4B - Pass Details

Date: 30 May 2022
Orbit: 948 x 1097 km, 32.4° (Epoch: 03 July)

Event Time Altitude Azimuth Distance (km) Brightness Sun altitude
Exits shadow 23:51:04 13° 138° (SE) 2,516 10.3 -20.1°
Drops below altitude 10° 23:52:30 10° 126° (SE) 2,749 10.6 -20.1°
Sets 23:56:13 0° 106° (ESE) 3,670 11.5 -19.9°
